Location: São Paulo
(23.5507°S, 46.6334°W)
Time: 17:43:30
(UTC-03:00)

A-11 Canister half - Pass Details

Date: 14 February 2026
Orbit: 1524 x 1683 km, 47.3° (Epoch: 13 March)

Event Time Altitude Azimuth Distance (km) Brightness Sun altitude
Exits shadow 04:32:24 25° 300° (WNW) 2,883 9.8 -18.5°
Maximum altitude 04:38:56 69° 222° (SW) 1,768 9.2 -17.1°
Drops below altitude 10° 04:49:08 10° 139° (SE) 3,961 12.2 -14.9°
Sets 04:52:22 0° 136° (SE) 4,952 12.9 -14.2°
